Flag for Chile Weather past 2 weeks in Easter Island, Chile

Now
73 °F

Passing clouds.


Feels Like: 76 °F
Forecast: 70 / 76 °F
Wind: 6 mph from East

Location: Isla De Pascua


UV Index: 5 (Moderate)

Visibility: N/A


Pressure: 30.15 "Hg

Humidity: 69%

Dew point: 63 °F

Location of Easter IslandLocation

Historic Weather in Easter Island

°F

Easter Island temperature yesterday

Maximum temperature yesterday: 79 °F (at 4:00 PM)
Minimum temperature yesterday: 66 °F (at 8:00 AM)
Average temperature yesterday: 71 °F

Past Weeks' High & Low Weather Summary

 TemperatureHumidityPressure
High79 °F (Apr 1, 4:00 PM)94% (Apr 6, 8:00 PM)30.27 "Hg (Apr 6, 8:00 PM)
Low64 °F (Apr 6, 8:00 AM)54% (Apr 7, 3:00 PM)30.07 "Hg (Apr 1, 4:00 PM)
Average72 °F75%30.16 "Hg
* Reported Apr 1 9:00 AM — Apr 16 9:00 AM, Easter Island, Weather by CustomWeather, © 2014

Note: Actual official high and low records may vary slightly from our data, if they occured in-between our weather recording intervals... More about our weather records

Advertising

Historic Weather Conditions — Data for Previous 24 hours

 ConditionsComfort  
Time TempWeatherWind HumidityBarometerVisibility
9:00 AM
Apr 16
72 °FPartly cloudy.6 mph65%30.15 "HgN/A
8:00 AM70 °FPassing clouds.8 mph64%30.15 "HgN/A
7:00 AM70 °FPassing clouds.5 mph78%30.15 "HgN/A
6:00 AM70 °FPassing clouds.2 mph78%30.15 "HgN/A
5:00 AM70 °FPassing clouds.5 mph73%30.15 "HgN/A
4:00 AM70 °FPassing clouds.6 mph78%30.18 "HgN/A
3:00 AM72 °FPassing clouds.6 mph73%30.18 "HgN/A
2:00 AM70 °FPassing clouds.8 mph78%30.21 "HgN/A
1:00 AM72 °FPassing clouds.7 mph78%30.21 "HgN/A
12:00 AM72 °FPassing clouds.6 mph78%30.21 "HgN/A
11:00 PM
Apr 15
70 °FPassing clouds.5 mph83%30.18 "HgN/A
10:00 PM72 °FPassing clouds.8 mph78%30.18 "HgN/A
9:00 PM72 °FScattered clouds.3 mph78%30.15 "HgN/A
8:00 PM72 °FBroken clouds.8 mph78%30.15 "HgN/A
6:00 PM75 °FScattered clouds.10 mph65%30.15 "HgN/A
5:00 PM75 °FBroken clouds.14 mph69%30.15 "HgN/A
4:00 PM79 °FBroken clouds.12 mph61%30.15 "HgN/A
3:00 PM77 °FScattered clouds.13 mph61%30.18 "HgN/A
2:00 PM77 °FScattered clouds.13 mph61%30.18 "HgN/A
1:00 PM75 °FBroken clouds.9 mph69%30.21 "HgN/A
12:00 PM75 °FScattered clouds.12 mph65%30.21 "HgN/A
11:00 AM73 °FScattered clouds.7 mph74%30.21 "HgN/A
10:00 AM70 °FPartly cloudy.5 mph83%30.18 "HgN/A
Weather by CustomWeather, © 2014

See weather overview